Regional Weather Roundup
Issued by NWS

Home | Current Version | Previous Version | Graphics & Text | Print | Product List | Glossary On
Versions: 1 2 3 4 5 6 7 8 9 10 11 12 13 14 15 16 17 18 19 20 21 22 23 24 25 26 27 28 29 30 31 32 33 34 35 36 37 38 39 40 41 42 43 44 45 46 47 48 49 50
000
ASUS43 KMPX 231201
RWRMN
WEATHER ROUNDUP FOR MINNESOTA
NATIONAL WEATHER SERVICE TWIN CITIES/CHANHASSEN MN
600 AM CST SUN NOV 23 2014


NOTE: "FAIR" INDICATES FEW OR NO CLOUDS BELOW 12,000 FEET WITH NO
SIGNIFICANT WEATHER AND/OR OBSTRUCTIONS TO VISIBILITY. N/A MEANS
CURRENT SKY AND/OR WEATHER CONDITIONS ARE NOT AVAILABLE.

MNZ060>063-068>070-231300-
   Twin Cities Metro

CITY           SKY/WX    TMP DP  RH WIND       PRES   REMARKS
TWIN CITIES    CLOUDY    49  47  93 S7        29.42F
6HR MIN TEMP:  38; 6HR MAX TEMP:  51;

ST PAUL        CLOUDY    45  44  97 SE7       29.45S FOG
CRYSTAL        FOG       42  41  96 CALM      29.42S VSB 1/4
LAKEVILLE      CLOUDY    48  46  93 S6        29.43F
EDEN PRAIRIE   CLOUDY    50  48  93 S6        29.42R FOG
6HR MIN TEMP:  45; 6HR MAX TEMP:  51;

SOUTH ST PAUL  CLOUDY    49  47  95 S5        29.43F FOG
LAKE ELMO      MOCLDY    46  46 100 S9        29.45S FOG
$$
MNZ001>005-007-008-013>017-022>024-027-028-231300-
   Northwest Minnesota

CITY           SKY/WX    TMP DP  RH WIND       PRES   REMARKS
BEMIDJI        LGT SNOW  33  33 100 SW3       29.38R VSB 1
HALLOCK        CLOUDY    34  30  86 S9        29.34S FOG     WCI  26
ROSEAU         CLOUDY    36  30  80 S6        29.36F HAZE
WARROAD        CLOUDY    34  28  80 S5        29.37S FOG     WCI  30
THIEF RVR FALL CLOUDY    34  32  93 SW8       29.38R WCI  27
CROOKSTON      CLOUDY    32  32 100 S8        29.38F FOG     WCI  25
FOSSTON        CLOUDY    30  30 100 SW8       29.38F FOG     WCI  23
DETROIT LAKES    N/A     34  32  93 CALM      29.38F FOG
MOORHEAD       MOCLDY    34  34 100 CALM      29.40R FOG
PARK RAPIDS    CLOUDY    33  33 100 W6        29.38R FOG     WCI  28
MAHNOMEN       FAIR      32  32  99 S7        29.38S FOG     WCI  26
$$
MNZ006-009>011-018-025>026-231300-
   North Central Minnesota

CITY           SKY/WX    TMP DP  RH WIND       PRES   REMARKS
BAUDETTE       CLOUDY    33  32  96 S5        29.38S FOG     WCI  29
FLAG ISLAND    CLOUDY    32  30  93 S10       29.37S FOG     WCI  24
INTL FALLS     CLOUDY    32  31  96 SE5       29.39F FOG     WCI  27
6HR MIN TEMP:  32; 6HR MAX TEMP:  34;

WASKISH        CLOUDY    34  32  93 CALM      29.38S FOG
BIG FORK       SNOW      34  32  93 CALM      29.39S VSB 1/2
LONGVILLE      FOG       34  34 100 CALM      29.38S VSB 1/4
GRAND RAPIDS   CLOUDY    36  30  80 CALM      29.38S VSB 1/4
CRANE LAKE     FOG       30  30 100 CALM      29.42F VSB 3/4
ORR            CLOUDY    34  30  86 CALM      29.37S FOG
COOK           FOG       34  34 100 CALM      29.39S VSB 1
WALKER         CLOUDY    33  32  99 SW3       29.37S FOG
$$
MNZ012-019>021-037-231300-
   Northeast Minnesota

CITY           SKY/WX    TMP DP  RH WIND       PRES   REMARKS
DULUTH         FOG       36  35  96 SE7       29.40S VSB 1/8
6HR MIN TEMP:  33; 6HR MAX TEMP:  36; 6HR PCP:  0.01;

ELY            CLOUDY    34  34 100 CALM      29.39F FOG
HIBBING        FOG       36  33  89 CALM      29.39R VSB 1/2
EVELETH        FOG       36  36 100 CALM      29.40S VSB 3/4
DULUTH HARBOR  FOG       37  36  93 CALM      29.43S VSB 3/4
TWO HARBORS    CLOUDY    37  34  87 NE3       29.40S HAZE
SILVER BAY     DRIZZLE   37  36  93 NE3       29.41F
GRAND MARAIS     N/A     37  35  92 NE6       29.47F
G MARAIS ARPRT CLOUDY    30  28  93 E7        29.44F WCI  23
$$
MNZ029>031-032-039>041-046>048-054>057-064-231300-
   West Central Minnesota

CITY           SKY/WX    TMP DP  RH WIND       PRES   REMARKS
FERGUS FALLS   MOCLDY    34  30  86 CALM      29.42R
WHEATON        MOCLDY    32  30  93 W5        29.43R WCI  27
MORRIS           N/A     36  32  87 W5        29.41R
ALEXANDRIA     CLOUDY    35  32  88 CALM      29.39F
ELBOW LAKE       N/A     33  32  94 SW8       29.40R WCI  26
WADENA         CLOUDY    34  32  93 W6        29.38R FOG     WCI  29
GLENWOOD       MOCLDY    37  32  81 W7        29.40R
APPLETON       CLOUDY    37  32  81 CALM      29.42R
BENSON         MOCLDY    36  32  87 SW7       29.42R
ORTONVILLE     PTCLDY    37  32  81 NW8       29.40R
MADISON        CLOUDY    39  36  87 W3        29.43R
WILLMAR        FAIR      37  34  87 CALM      29.43R
$$
MNZ033>034-036-042>043-049>051-058-059-231300-
   Central Minnesota

CITY           SKY/WX    TMP DP  RH WIND       PRES   REMARKS
ST CLOUD       CLOUDY    37  36  96 MISG      29.41S FOG
6HR MIN TEMP:  35; 6HR MAX TEMP:  39; 6HR PCP: TRACE;

SAUK CENTRE    CLOUDY    34  32  92 CALM      29.39S
PAYNESVILLE    CLOUDY    35  33  92 E7        29.42R WCI  29
AITKIN         HAZE      37  34  87 CALM      29.38S VSB 1
PINE RIVER     FOG       34  34 100 CALM      29.42F VSB 1/4
BRAINERD       FOG       33  33 100 SW3       29.39S VSB 1/4
STAPLES        FOG       32  32 100 CALM      29.38S VSB 1/2
LONG PRAIRIE   CLOUDY    34  32  93 CALM      29.39S
LITTLE FALLS   CLOUDY    32  32 100 SE5       29.41R FOG     WCI  27
LITCHFIELD     CLOUDY    41  41 100 CALM      29.43R FOG
BUFFALO        FOG       41  40  95 CALM      29.43R VSB 1/4
MAPLE LAKE     FOG       41  40  98 CALM      29.42F VSB 1/4
$$
MNZ037-044-045-052-053-231300-
   East Central Minnesota

CITY           SKY/WX    TMP DP  RH WIND       PRES   REMARKS
PRINCETON      FOG       43  41  93 CALM      29.42R VSB 1/4
MORA           FOG       36  36 100 CALM      29.43R VSB 1/2
CAMBRIDGE      HAZE      43  36  75 CALM      29.40S VSB<1/4
RUSH CITY      FOG       41  40  97 CALM      29.42S VSB 3/4
MOOSE LAKE     FOG       39  37  93 CALM      29.39S VSB 1/4
HINCKLEY       FOG       39  39 100 S6        29.41F VSB 1/4
CLOQUET        FOG       36  36 100 CALM      29.40R VSB<1/4
MCGREGOR       CLOUDY    36  36 100 CALM      29.39S VSB 3/4
$$
MNZ071>073-080-081-089-090-097-098-231300-
   Southwest Minnesota

CITY           SKY/WX    TMP DP  RH WIND       PRES   REMARKS
MONTEVIDEO     CLOUDY    37  36  93 W6        29.44R
GRANITE FALLS  CLOUDY    35  34  94 S7        29.44R WCI  29
CANBY          CLOUDY    40  34  78 W5        29.44R
MARSHALL       CLOUDY    41  37  87 SW6       29.44R
REDWOOD FALLS  CLOUDY    40  39  97 W6        29.43R FOG
OLIVIA           N/A     37  36  93 SW5       29.42R FOG
PIPESTONE      FOG       37  37 100 NW5       29.44R VSB<1/4
WINDOM         CLOUDY    48  48 100 SW9       29.43F FOG
WORTHINGTON    CLOUDY    48  46  93 SW9       29.44R
JACKSON        CLOUDY    48  46  93 SW5       29.44S FOG
TRACY          CLOUDY    45  44  97 W8        29.44R FOG
SLAYTON        CLOUDY    45  45 100 SW13      29.44R FOG
$$
MNZ065>067-074>077-082>085-091>093-231300-
   South Central Minnesota

CITY           SKY/WX    TMP DP  RH WIND       PRES   REMARKS
MANKATO        CLOUDY    50  46  87 S9        29.44S
NEW ULM        FOG       45  45 100 CALM      29.43R VSB 1
ST JAMES       CLOUDY    50  48  93 S7        29.44S FOG
FAIRMONT       CLOUDY    52  46  82 S14       29.45R
GLENCOE        FOG       46  46  99 S5        29.42R VSB 3/4
FARIBAULT      CLOUDY    52  48  87 S8        29.45F
OWATONNA       CLOUDY    50  46  87 SE13      29.45F FOG
WASECA         CLOUDY    50  46  87 S12       29.45F
ALBERT LEA     CLOUDY    50  50 100 S10       29.46F FOG
$$
MNZ078>079-086>088-094>096-231300-
   Southeast Minnesota

CITY           SKY/WX    TMP DP  RH WIND       PRES   REMARKS
ROCHESTER      CLOUDY    49  47  93 S16G25    29.51S FOG
6HR MIN TEMP:  48; 6HR MAX TEMP:  49;

RED WING         N/A     52  48  87 S13       29.47S
STANTON        CLOUDY    50  47  89 S10       29.43F
DODGE CENTER   FOG       48  46  93 S15       29.48S VSB 1/2
WINONA         CLOUDY    52  48  87 S6        29.52F
AUSTIN         FOG       48  46  93 S14       29.49R VSB 1
PRESTON        CLOUDY    47  46  96 S13       29.52F FOG
$$
ABBREVIATIONS USED IN REMARKS
   TC - TEMPERATURES IN CELSIUS
  WCI - WIND CHILL INDEX
   HX - HEAT INDEX
  VSB - VISIBILITY
$$


USA.gov is the U.S. government's official web portal to all federal, state and local government web resources and services.